Simultaneous Nadir Overpasses (SNOs) Predictions

Prediction of SNOs between FY3D and NOAA-19 Satellite Orbit:

Table of predicted SNOs for the next 14.0 days since TLE Epoch: 9/18/2020
Index Date (FY3D) Time (FY3D) Lat,Lon (FY3D) SZA (FY3D ) Date (NOAA-19) Time (NOAA-19) Lat,Lon (NOAA-19) SZA (NOAA-19 ) Distance(km) Time Diff (sec)
1 10/02/2020 01:08:32 -79.12, -47.04 96.04 10/02/2020 01:07:17 -79.07, -47.35 96.03 8.66 75
2 10/02/2020 01:59:17 79.12, 120.29 83.98 10/02/2020 01:58:19 79.11, 120.20 83.99 2.39 58
3 10/02/2020 02:50:01 -79.12, -72.40 96.01 10/02/2020 02:49:16 -79.12, -72.45 96.00 1.01 45
4 10/02/2020 03:40:46 79.12, 94.93 84.00 10/02/2020 03:40:19 79.12, 94.83 84.02 2.09 27
5 10/02/2020 04:31:30 -79.12, -97.76 95.99 10/02/2020 04:31:16 -79.14, -97.81 95.97 1.90 14
6 10/02/2020 05:22:15 79.12, 69.57 84.03 10/02/2020 05:22:19 79.14, 69.47 84.05 3.22 4
7 10/02/2020 06:12:59 -79.12,-123.12 95.97 10/02/2020 06:13:16 -79.15,-123.17 95.94 3.72 17
8 10/02/2020 07:03:45 79.15, 43.95 84.10 10/02/2020 07:04:19 79.16, 44.10 84.08 3.12 34
9 10/02/2020 07:54:29 -79.15,-148.74 95.89 10/02/2020 07:55:17 -79.14,-148.80 95.91 2.28 48
10 10/02/2020 08:45:14 79.15, 18.59 84.13 10/02/2020 08:46:20 79.14, 18.47 84.11 2.87 66
